INNOSAT 16 (RS92S7)

Last updated on Sun Aug 09 2026 00:03:16 GMT+0000 (Coordinated Universal Time)

1 64878U 25155C 26220.60109415 .00003143 00000+0 12505-3 0 9995 2 64878 97.4608 187.5947 0010548 12.6272 347.5228 15.25981513 88667
UTC large
Height (km)
Speed (km/s)
/
Latitude / Longitude
Inclination (degrees)
Orbital Period (minutes)
Azimuth
Elevation
Range (km)
Doppler Factor

Next 0 passes for location: London (51.5072 / 0.1276)

No passes found over London.
INNOSAT 16 (RS92S7)